Regional Weather Roundup
Issued by NWS

Home | Current Version | Previous Version | Graphics & Text | Print | Product List | Glossary On
Versions: 1 2 3 4 5 6 7 8 9 10 11 12 13 14 15 16 17 18 19 20 21 22 23 24 25 26 27 28 29 30 31 32 33 34 35 36 37 38 39 40 41 42 43 44 45 46 47 48 49 50
374
ASUS43 KDMX 191201
RWRIA

WEATHER ROUNDUP FOR IOWA
NATIONAL WEATHER SERVICE DES MOINES IA
700 AM CDT SAT AUG 19 2017

NOTE: "FAIR" INDICATES FEW OR NO CLOUDS BELOW 12,000 FEET WITH NO
SIGNIFICANT WEATHER AND/OR OBSTRUCTIONS TO VISIBILITY.

* - THESE STATIONS ARE NOT NWS STATIONS...THUS NOT UNDER NWS
QUALITY CONTROL.  THEY ALSO DO NOT REPORT WEATHER SUCH
AS PRECIPITATION OR FOG.

IAZ001>003-012>014-020>022-031>034-043>046-191300-
   NORTHWEST IOWA

CITY           SKY/WX    TMP DP  RH WIND       PRES   REMARKS
CARROLL *      FOG       61  61 100 CALM      29.95R VSB<1/4
CHEROKEE *     FOG       57  57 100 CALM      29.98R VSB<1/4
DENISON *      PTCLDY    57  57 100 CALM      29.98R FOG
LE MARS *      PTCLDY    55  55 100 CALM      29.97F FOG
ORANGE CITY *  FOG       59  59 100 CALM      29.98R VSB<1/4
SHELDON *      FOG       55  55 100 CALM      29.97R VSB<1/4
SIOUX CITY     CLEAR     54  54 100 CALM      29.97R
6HR MIN TEMP:  54; 6HR MAX TEMP:  65;

SPENCER        FOG       53  53 100 NW3       29.98R VSB<1/4
6HR MIN TEMP:  51; 6HR MAX TEMP:  59;

STORM LAKE *   FOG       55  55 100 N3        29.97R VSB<1/4
$$

IAZ055>058-069>071-079>083-090>094-191300-
   SOUTHWEST IOWA

CITY           SKY/WX    TMP DP  RH WIND       PRES   REMARKS
ATLANTIC *     CLEAR     59  59 100 CALM      29.96R
AUDUBON *      CLEAR     61  57  88 NW6       29.96S
CLARINDA *     FOG       57  57 100 CALM      29.98S VSB 1/4
COUNCIL BLFS * CLEAR     61  61 100 N3        29.97S
CRESTON *      CLEAR     61  61 100 W7        29.97R FOG
HARLAN  *      CLEAR     57  57 100 CALM      29.99S FOG
LAMONI         CLEAR     62  62 100 NW5       29.95R
6HR MIN TEMP:  62; 6HR MAX TEMP:  69;

RED OAK *        N/A     57  55  94 CALM      29.97R
SHENANDOAH *   CLEAR     59  59 100 CALM      29.97R
$$

IAZ047>049-059>061-072>074-084-191300-
   CENTRAL IOWA

CITY           SKY/WX    TMP DP  RH WIND       PRES   REMARKS
AMES           MOCLDY    62  62 100 N3        29.95R
6HR MIN TEMP:  59; 6HR MAX TEMP:  67; 6HR PCP:  0.03;

ANKENY *       CLEAR     59  59 100 N6        29.95R FOG
BOONE *        CLOUDY    63  61  94 CALM      29.94R
CHARITON *     CLEAR     64  63  94 SE7       29.94R
DES MOINES     PTCLDY    65  62  90 SE5       29.92R
6HR MIN TEMP:  65; 6HR MAX TEMP:  73;

GRINNELL*      MOCLDY    60  58  94 E3        29.96R FOG
KNOXVILLE *    CLEAR     64  61  88 SE7       29.92R
MARSHALLTOWN   PTCLDY    60  60 100 NE5       29.94R
6HR MIN TEMP:  60; 6HR MAX TEMP:  64; 6HR PCP:  0.21;

NEWTON *       CLEAR     61  59  94 E5        29.95R
PELLA *        CLEAR     62  61  96 SE3       29.94S
PERRY *        CLOUDY    62  62  98 CALM      29.94R FOG
$$

IAZ004>006-015-016-023>025-035-036-191300-
   NORTH CENTRAL IOWA

CITY           SKY/WX    TMP DP  RH WIND       PRES   REMARKS
ALGONA *       CLEAR     55  55 100 NE3       29.97R FOG
CLARION *      PTCLDY    57  57 100 E6        29.96R
ESTHERVILLE    FOG       51  51 100 NW3       29.97R VSB 1/2
6HR MIN TEMP:  50; 6HR MAX TEMP:  55;

FORT DODGE *   CLEAR     57  54  88 CALM      29.96R
MASON CITY     PTCLDY    53  52  96 NE3       29.98R FOG
6HR MIN TEMP:  52; 6HR MAX TEMP:  59;

FOREST CITY *  FOG       54  54 100 CALM      29.98R VSB 1/4
WEBSTER CITY * CLOUDY    61  61 100 CALM      29.94R FOG
IOWA FALLS *   FOG       59  58  97 CALM      29.97R VSB 1
$$

IAZ007>011-017>019-026>030-037>042-050>054-066-191300-
   NORTHEAST IOWA

CITY           SKY/WX    TMP DP  RH WIND       PRES   REMARKS
CEDAR RAPIDS   CLEAR     57  57 100 CALM      29.95R
6HR MIN TEMP:  57; 6HR MAX TEMP:  63; 6HR PCP:  0.12;

CHARLES CITY * CLEAR     54  54 100 CALM      29.97R FOG
CLINTON *      CLEAR     58  57  97 CALM      29.96R
DECORAH *      FOG       52  52 100 CALM      29.96R VSB<1/4
DUBUQUE        CLEAR     59  58  96 CALM      29.96R FOG
6HR MIN TEMP:  56; 6HR MAX TEMP:  60;

MONTICELLO *   CLEAR     57  57 100 CALM      29.95R FOG
OELWEIN *      CLEAR     55  55 100 SW3       29.98R
WATERLOO       CLEAR     56  55  97 CALM      29.95R
6HR MIN TEMP:  55; 6HR MAX TEMP:  63;

$$

IAZ064-065-067-068-078-191300-
   EAST CENTRAL IOWA

CITY           SKY/WX    TMP DP  RH WIND       PRES   REMARKS
DAVENPORT      MOCLDY    62  61  96 CALM      29.97R
6HR MIN TEMP:  60; 6HR MAX TEMP:  63; 6HR PCP: TRACE;

IOWA CITY      CLEAR     61  59  93 SW5       29.97R
6HR MIN TEMP:  61; 6HR MAX TEMP:  68; 6HR PCP: TRACE;

MUSCATINE *    MOCLDY    63  61  94 CALM      29.95R FOG
QUAD CITIES    CLOUDY    65  61  87 CALM      29.94R
6HR MIN TEMP:  64; 6HR MAX TEMP:  69; 6HR PCP:  0.09;

$$

IAZ062-063-075>077-085>089-095>099-191300-
   SOUTHEAST IOWA

CITY           SKY/WX    TMP DP  RH WIND       PRES   REMARKS
BURLINGTON     MOCLDY    66  62  87 E3        29.94R
6HR MIN TEMP:  65; 6HR MAX TEMP:  69;

FAIRFIELD *    PTCLDY    61  59  94 NE8       29.94R
FORT MADISON * CLEAR     63  63 100 CALM      29.95R
KEOKUK *       CLEAR     66  63  88 E8        29.93R
OSKALOOSA *      N/A     61  60  96 SE5       29.95R
OTTUMWA        CLEAR     63  61  93 E5        29.94R
6HR MIN TEMP:  62; 6HR MAX TEMP:  70;

WASHINGTON *   CLOUDY    64  63  94 CALM      29.96R FOG
$$

ABBREVIATIONS USED IN REMARKS
   TC - TEMPERATURES IN CELSIUS
  WCI - WIND CHILL INDEX
   HX - HEAT INDEX
  VSB - VISIBILITY
$$





USA.gov is the U.S. government's official web portal to all federal, state and local government web resources and services.